Starlink 4425

operational
NORAD ID: 53208 Int'l Des: 2022-084 Owner: SPXS Country: US Constellation: starlink
LEOCIRCULARRETROGRADESSO

Über Starlink 4425

Beschreibung wird geladen...

Live-Position

3D-Globus wird geladen...

Nächste Überflüge

Höhenverlauf

Altitude vs Time

uPlot chart will show altitude changes over time

Zweizeiliger Elementsatz

1 53208U 22084V 25346.91265464 .00000147 00000-0 16021-4 0 9997
2 53208 97.6044 45.2554 0002080 87.7129 272.4334 15.01263439186294
Epoch: 12. Dez. 2025 • Age: 10 hours

Aktueller Status

Höhe 568.5 km
Geschwindigkeit 7.58 km/s
Subsatellitenpunkt -11.75°S, 146.75°W
Startdatum 22. Juli 2022
Alter 3.3 years
Typ internet

Technische Details

Klassifizierung Payload
Masse 297.00 kg
Trockenmasse 275.00 kg
Gesamtmasse 297.00 kg
Länge 0.20 m
Durchmesser 2.80 m
Spannweite 9.00 m
Form Box + pan
Hersteller SPXS
Bus-Typ Starlink
Phasenstatus In Orbit
Besitzer/Staat SPXS/US

Große Konstellationen

Loading constellations...